NDF57EL EDLP-EDDH

Flight info

Callsign NDF57EL
Flight time N/A
Altitude 23000
Route WRB1X WRB P12 NORTA/N0400F220 P605 NOLGO NOLGO6A
Aircraft A321/M-SDE3FGHIRWY/LB1

Departure

Time 2026-04-30 22:33
Airport Paderborn Lippstadt Airport (EDLP)

Arrival

Time N/A
Airport Hamburg Helmut Schmidt Airport (EDDH)
Time Latitude Longitude Altitude Speed Heading
2026-04-30 22:09 51.61149 8.62001 730 ft 0 kts 147°
2026-04-30 22:10 51.61119 8.61928 731 ft 0 kts 147°
2026-04-30 22:24 51.61135 8.61910 731 ft 4 kts 144°
2026-04-30 22:24 51.61155 8.61888 730 ft 4 kts 153°
2026-04-30 22:25 51.61172 8.61883 729 ft 4 kts 233°
2026-04-30 22:25 51.61184 8.61920 730 ft 4 kts 245°
2026-04-30 22:25 51.61189 8.61937 729 ft 0 kts 237°
2026-04-30 22:29 51.61093 8.61703 731 ft 16 kts 237°
2026-04-30 22:29 51.61031 8.61550 731 ft 17 kts 237°
2026-04-30 22:30 51.60901 8.60881 718 ft 22 kts 237°
2026-04-30 22:31 51.60796 8.60359 715 ft 12 kts 332°
2026-04-30 22:32 51.60942 8.60485 720 ft 34 kts 56°
2026-04-30 22:32 51.61744 8.62466 733 ft 165 kts 58°
2026-04-30 22:33 51.63934 8.66942 2842 ft 167 kts 63°
2026-04-30 22:33 51.64867 8.70603 3309 ft 205 kts 64°
2026-04-30 22:34 51.67920 8.76060 4433 ft 224 kts 52°
2026-04-30 22:35 51.70028 8.79795 5008 ft 226 kts 53°
2026-04-30 22:36 51.74310 8.87911 5655 ft 263 kts 54°
2026-04-30 22:36 51.75481 8.90176 6522 ft 263 kts 54°
2026-04-30 22:37 51.79024 8.97026 8980 ft 267 kts 54°
2026-04-30 22:37 51.80217 8.99347 9790 ft 270 kts 53°
2026-04-30 22:37 51.82670 9.04145 10880 ft 294 kts 53°
2026-04-30 22:38 51.85446 9.09615 11184 ft 339 kts 53°
2026-04-30 22:38 51.88540 9.15693 12213 ft 356 kts 53°
2026-04-30 22:39 51.90126 9.18793 12891 ft 359 kts 53°
2026-04-30 22:39 51.94978 9.28311 14820 ft 371 kts 52°
2026-04-30 22:40 51.99930 9.38084 16752 ft 380 kts 52°
2026-04-30 22:41 52.05000 9.48164 18671 ft 388 kts 52°
2026-04-30 22:41 52.08437 9.55022 19740 ft 394 kts 51°
2026-04-30 22:42 52.15435 9.69009 21790 ft 406 kts 51°
2026-04-30 22:43 52.19021 9.76192 22782 ft 412 kts 51°
2026-04-30 22:43 52.22695 9.83422 23396 ft 415 kts 46°
2026-04-30 22:44 52.27355 9.88951 23436 ft 417 kts 26°
2026-04-30 22:45 52.38478 9.94281 23436 ft 419 kts 16°
2026-04-30 22:45 52.44104 9.96779 23424 ft 419 kts 17°
2026-04-30 22:46 52.49725 9.99286 23442 ft 418 kts 17°
2026-04-30 22:47 52.60899 10.04244 23434 ft 416 kts 16°
2026-04-30 22:47 52.66488 10.06740 23434 ft 416 kts 16°
2026-04-30 22:48 52.72065 10.09245 23445 ft 415 kts 17°
2026-04-30 22:49 52.80603 10.10927 22915 ft 436 kts 347°
2026-04-30 22:49 52.88373 10.02760 21346 ft 445 kts 325°
2026-04-30 22:50 52.98154 9.90515 19280 ft 436 kts 326°
2026-04-30 22:51 53.02928 9.84530 17761 ft 430 kts 326°
2026-04-30 22:51 53.07668 9.78564 16215 ft 426 kts 326°
2026-04-30 22:52 53.10024 9.75593 15487 ft 425 kts 326°
2026-04-30 22:52 53.14726 9.69652 14027 ft 424 kts 326°
2026-04-30 22:53 53.19283 9.63863 12447 ft 390 kts 325°
2026-04-30 22:53 53.23371 9.58654 10984 ft 352 kts 325°
2026-04-30 22:53 53.25279 9.56224 10260 ft 338 kts 325°
2026-04-30 22:54 53.28885 9.51643 8723 ft 319 kts 324°
2026-04-30 22:55 53.34190 9.45918 6485 ft 289 kts 358°
2026-04-30 22:55 53.37694 9.48023 4962 ft 268 kts 48°
2026-04-30 22:56 53.40026 9.52707 4045 ft 258 kts 52°
2026-04-30 22:56 53.43514 9.59655 3993 ft 261 kts 51°
2026-04-30 22:57 53.45870 9.64349 3550 ft 268 kts 51°
2026-04-30 22:57 53.48271 9.69140 2994 ft 259 kts 51°
2026-04-30 22:58 53.50444 9.73483 3006 ft 229 kts 51°
2026-04-30 22:59 53.53480 9.79571 2666 ft 226 kts 52°
2026-04-30 22:59 53.56470 9.85576 1794 ft 219 kts 52°